User: anonymous   Login
Location: Dayton
(39.7590°N, 84.1920°W)
Time: 16:58:41
(UTC-04:00)
Language:

Cosmos 1939 Rocket - Orbit

View from above orbital plane
View from above orbital plane
View from above satellite
View from above satellite

Ground track
Ground track

The orbit data is extracted from the following two-line orbital elements,

1 19046U 88032B   15240.55631932 +.00001377 +00000-0 +10940-3 0  9992
2 19046 097.6308 291.7949 0043085 057.2562 303.2804 15.01399107473496
Epoch (UTC): 28 August 2015 13:21:05
Eccentricity: 0.0043085
inclination: 97.6308°
perigee height: 532 km
apogee height: 592 km
right ascension of ascending node: 291.7949°
argument of perigee: 57.2562°
revolutions per day: 15.01399107
mean anomaly at epoch: 303.2804°
orbit number at epoch: 47349

The dashed part of the orbit path shows where the satellite is in the earth's shadow,  

DLR